EST,Max TemperatureF,Mean TemperatureF,Min TemperatureF,Max Dew PointF,MeanDew PointF,Min DewpointF,Max Humidity, Mean Humidity, Min Humidity, Max Sea Level PressureIn, Mean Sea Level PressureIn, Min Sea Level PressureIn, Max VisibilityMiles, Mean VisibilityMiles, Min VisibilityMiles, Max Wind SpeedMPH, Mean Wind SpeedMPH, Max Gust SpeedMPH,PrecipitationIn, CloudCover, Events, WindDirDegrees
2012-11-1,55,46,37,35,28,18,77,55,26,29.90,29.87,29.84,10,10,10,16,6,22,0.00,5,,267
2012-11-2,52,40,28,35,30,27,92,68,43,30.12,30.00,29.86,10,10,10,14,3,22,0.00,2,,338
2012-11-3,44,35,26,38,32,23,96,86,71,30.23,30.16,30.13,10,10,6,7,2,,0.06,5,Rain,18
2012-11-4,48,36,26,35,31,25,96,76,59,30.21,30.18,30.15,10,10,8,10,3,,0.00,5,,352
2012-11-5,48,34,21,30,26,18,92,75,46,30.22,30.18,30.12,10,8,4,7,1,,0.00,0,,51
2012-11-6,51,36,21,35,27,18,92,71,39,30.13,30.04,29.93,10,9,5,5,1,,0.00,2,,90
2012-11-7,54,41,28,35,32,26,92,67,41,30.15,30.00,29.91,10,8,3,10,3,17,0.00,3,,6
2012-11-8,53,38,23,34,27,21,93,79,43,30.28,30.22,30.14,10,6,1,4,0,,0.00,0,,300
2012-11-9,62,44,25,39,33,22,92,69,39,30.30,30.21,30.14,10,8,4,10,2,17,0.00,0,,174
2012-11-10,73,58,44,46,40,37,76,56,34,30.22,30.18,30.12,10,10,10,10,5,23,0.00,0,,152
2012-11-11,69,56,44,46,38,34,74,49,28,30.27,30.17,30.08,10,10,10,15,6,26,0.00,0,,158
2012-11-12,63,45,25,55,43,22,94,86,56,30.43,30.15,30.02,10,7,2,21,8,28,0.81,6,Rain-Snow,245
2012-11-13,43,32,21,28,22,17,89,76,43,30.56,30.51,30.44,10,10,8,7,1,,0.00,0,Snow,320
2012-11-14,43,31,19,28,23,16,92,76,49,30.58,30.51,30.42,10,8,5,10,2,,0.00,0,,71
2012-11-15,46,32,19,31,25,17,92,78,52,30.42,30.39,30.35,10,7,4,6,1,,0.00,0,,353
2012-11-16,51,35,19,35,27,16,92,80,52,30.52,30.47,30.41,10,7,2,8,1,,0.00,0,,38
2012-11-17,57,38,19,35,26,17,91,70,36,30.60,30.53,30.49,10,8,3,10,2,,0.00,0,,67
2012-11-18,59,40,21,32,25,19,92,66,28,30.51,30.45,30.40,10,10,8,5,1,,0.00,0,,100
2012-11-19,59,42,25,39,31,21,92,72,42,30.40,30.32,30.22,10,10,9,0,0,,0.00,0,,-1
2012-11-20,61,47,33,41,37,31,93,70,38,30.20,30.15,30.09,10,9,7,5,0,,0.00,6,Rain,100
2012-11-21,63,48,32,40,36,30,93,72,37,30.27,30.22,30.15,10,9,5,7,1,,0.00,1,,20
2012-11-22,66,46,26,41,32,25,96,79,37,30.25,30.19,30.02,10,5,0,12,1,21,0.00,0,Fog,204
2012-11-23,59,46,32,50,33,19,94,61,44,30.22,30.06,29.95,10,10,5,20,11,31,0.01,7,Rain,279
2012-11-24,34,28,19,21,19,16,85,64,56,30.27,30.22,30.16,10,10,10,10,6,,0.00,7,,274
2012-11-25,48,36,24,31,24,21,88,65,39,30.14,30.03,29.93,10,10,9,12,2,18,0.00,1,,221
2012-11-26,52,38,23,32,27,20,91,65,40,30.28,30.18,30.06,10,10,10,10,1,,0.00,3,,360
2012-11-27,39,29,19,30,24,15,88,72,53,30.39,30.33,30.27,10,9,5,12,7,,0.00,3,,350
2012-11-28,45,30,16,26,19,12,93,74,40,30.46,30.41,30.35,10,7,2,10,1,,0.00,1,,258
2012-11-29,51,34,16,29,22,12,88,69,38,30.45,30.36,30.26,10,8,4,8,1,,0.00,0,,195
2012-11-30,59,43,27,39,32,24,89,67,39,30.27,30.23,30.17,10,10,8,10,3,18,0.00,2,,152